Regional Weather Roundup
Issued by NWS

Home | Current Version | Previous Version | Text Only | Print | Product List | Glossary Off
Versions: 1 2 3 4 5 6 7 8 9 10 11 12 13 14 15 16 17 18 19 20 21 22 23 24 25 26 27 28 29 30 31 32 33 34 35 36 37 38 39 40 41 42 43 44 45 46 47 48 49 50

000
ASUS43 KLMK 270502
RWRKY
KENTUCKY REGIONAL WEATHER ROUNDUP
NATIONAL WEATHER SERVICE LOUISVILLE KY
100 AM EDT THU APR 27 2017

NOTE "FAIR" INDICATES FEW OR NO CLOUDS BELOW 12,000 FEET
WITH NO SIGNIFICANT WEATHER AND/OR OBSTRUCTIONS TO VISIBILITY.

KYZ001>023-026-027-061>063-070>075-270600-
WESTERN AND SOUTH CENTRAL KENTUCKY

CITY           SKY/WX    TMP DP  RH WIND       PRES   REMARKS
PADUCAH        RAIN      59  57  93 E20G26    29.49F FOG
HENDERSON      RAIN      60  59  96 S3        29.60S
OWENSBORO      HVY RAIN  63  58  83 W22G28    29.65R
HOPKINSVILLE   TSTM      61  59  94 W9        29.64R FOG
BOWLING GREEN  MOCLDY    73  59  61 S20G26    29.59S
GLASGOW        NOT AVBL
$$

KYZ024-025-028>034-038-045-046-053-270600-
NORTH CENTRAL KENTUCKY

CITY           SKY/WX    TMP DP  RH WIND       PRES   REMARKS
LOUISVILLE/SDF CLOUDY    74  58  57 S9        29.57R
LOUISVILLE/LOU CLOUDY    72  58  61 S6        29.57F
FORT KNOX      CLOUDY    69  57  65 S15       29.57R
$$

KYZ035>037-039>044-047>052-055>060-089>105-270600-
NORTHEAST KENTUCKY

CITY           SKY/WX    TMP DP  RH WIND       PRES   REMARKS
LEXINGTON      PTCLDY    68  54  60 S10       29.63R
COVINGTON      MOCLDY    68  55  63 S12       29.58R
FRANKFORT      CLOUDY    71  53  52 S9        29.60R
$$

KYZ054-064>069-076>088-106>120-270600-
SOUTHEAST KENTUCKY

CITY           SKY/WX    TMP DP  RH WIND       PRES   REMARKS
JACKSON        CLEAR     69  51  52 CALM      29.68R
LONDON         CLOUDY    68  56  65 S5        29.68S
SOMERSET       PTCLDY    72  54  53 S10G21    29.67S
MIDDLESBORO    CLEAR     71  57  60 S12G18    29.73R
MONTICELLO     CLOUDY    73  57  57 SE16G25   29.66S
$$





USA.gov is the U.S. government's official web portal to all federal, state and local government web resources and services.